Montauk, NY

1:02 PM EST on December 03, 2016 (GMT -0500)
Montauk

Weather History for KMTP - April, 2013

Change the Weather History Date:

Wednesday, April 3, 2013

  Actual Average (KHTO) Record (KHTO)
Temperature  
Mean Temperature 39 °F -  
Max Temperature 44 °F 52 °F 76 °F (1967)
Min Temperature 34 °F 36 °F 22 °F (1954)
Degree Days  
Heating Degree Days 26    
Moisture  
Dew Point 17 °F    
Average Humidity 41    
Maximum Humidity 48    
Minimum Humidity 35    
Precipitation  
Precipitation 0.00 in - - ()
Sea Level Pressure  
Sea Level Pressure 30.09 in    
Wind  
Wind Speed 15 mph (West)    
Max Wind Speed 18 mph    
Max Gust Speed 31 mph    
Averages and records for this station are not official NWS values.
T = Trace of Precipitation, MM = Missing Value Source: NWS Daily Summary

Daily Weather History Graph

Daily Weather History Graph

Search for Another Location

Airport or City:

Trip Planner

Search our weather history database for the weather conditions in past years. The results will help you decide how hot, cold, wet, or windy it might be!

Date:

Astronomy

Apr. 03, 2013 Rise Set
Actual Time 6:27 AM EDT 7:15 PM EDT
Civil Twilight 5:59 AM EDT 7:42 PM EDT
Nautical Twilight 5:26 AM EDT 8:16 PM EDT
Astronomical Twilight 4:52 AM EDT 8:50 PM EDT
Moon 2:09 AM EDT 12:20 PM EDT
Length of Visible Light 13h 43m
Length of Day
12h 47m
Last Quarter, 45% of the Moon is Illuminated
Apr 3
Last Quarter
Apr 10
New
Apr 18
First Quarter
Apr 25
Full
May 2
Last Quarter

Hourly Weather History & Observations

Time (EDT) Temp. Windchill Dew Point Humidity Pressure Visibility Wind Dir Wind Speed Gust Speed Precip Events Conditions
12:54 AM 37.0 °F 27.4 °F 12.9 °F 37% 30.04 in - West 17.3 mph 26.5 mph N/A   Unknown
2:00 AM - - - N/A% - - North - - N/A   Unknown
2:54 AM 36.0 °F 26.3 °F 12.9 °F 39% 30.03 in - West 16.1 mph 24.2 mph N/A   Unknown
3:54 AM 35.1 °F 25.2 °F 14.0 °F 42% 30.03 in - West 16.1 mph 26.5 mph N/A   Unknown
4:54 AM 35.1 °F 25.9 °F 15.1 °F 44% 30.04 in - WNW 13.8 mph 29.9 mph N/A   Unknown
5:54 AM 34.0 °F 24.6 °F 16.0 °F 48% 30.06 in - West 13.8 mph 21.9 mph N/A   Unknown
6:54 AM 34.0 °F 24.6 °F 15.1 °F 46% 30.08 in - West 13.8 mph 21.9 mph N/A   Unknown
7:54 AM 35.1 °F 26.4 °F 17.1 °F 48% 30.11 in - West 12.7 mph 23.0 mph N/A   Unknown
9:54 AM 37.0 °F 28.1 °F 15.1 °F 41% 30.10 in - WNW 15.0 mph 24.2 mph N/A   Unknown
10:54 AM 37.9 °F 29.6 °F 16.0 °F 41% 30.08 in - West 13.8 mph 21.9 mph N/A   Unknown
11:54 AM 39.0 °F 29.9 °F 17.1 °F 41% 30.09 in - West 17.3 mph 26.5 mph N/A   Unknown
12:54 PM 39.9 °F 31.1 °F 18.0 °F 41% 30.08 in - West 17.3 mph 25.3 mph N/A   Unknown
1:54 PM 41.0 °F 32.8 °F 16.0 °F 36% 30.07 in - West 16.1 mph 27.6 mph N/A   Unknown
2:54 PM 42.1 °F 34.2 °F 16.0 °F 35% 30.06 in - West 16.1 mph 26.5 mph N/A   Unknown
4:54 PM 44.1 °F 36.2 °F 18.0 °F 35% 30.04 in - West 18.4 mph 25.3 mph N/A   Unknown
5:54 PM 44.1 °F 37.7 °F 19.9 °F 38% 30.06 in - West 12.7 mph 20.7 mph N/A   Unknown
6:54 PM 43.0 °F 36.8 °F 21.0 °F 42% 30.09 in - WNW 11.5 mph - N/A   Unknown
7:54 PM 42.1 °F 36.1 °F 19.0 °F 40% 30.13 in - WNW 10.4 mph 21.9 mph N/A   Unknown
8:54 PM 39.9 °F 32.1 °F 18.0 °F 41% 30.17 in - NW 13.8 mph 23.0 mph N/A   Unknown
10:54 PM 37.9 °F 28.9 °F 17.1 °F 43% 30.22 in - WNW 16.1 mph 25.3 mph N/A   Unknown
11:54 PM 37.0 °F 28.1 °F 16.0 °F 42% 30.25 in - WNW 15.0 mph 31.1 mph N/A   Unknown